Showing default

IRIDIUM 114, 41923

Orbit data source: Space-Track

IRIDIUM 114, 41923 is a payload satellite owned by Iridium (US) in LEO that was launched on Sat, 14 Jan 2017 UTC via an FALCON 9 launch vehicle from the Air Force Western Test Range (AFWTR). Payloads include a variety of satellites, spacecraft, and rockets equipped with specific instruments for various scientific and technological missions. These include communications satellites like Starlink; space stations such as the ISS; scientific satellites like the Hubble; Earth observation satellites from companies like Planet Labs, Umbra, and HawkEye 360; GPS; miniature CubeSats for education and research; and military/defense satellites.

Loading next visibility...
IRIDIUM 114 details
Identifier
41923, 2017-003G
Orbit
LEO
Last TLE update16 hours ago
Origin
Flag of USIridium (US)
ManufacturerOATK SSG Gilbert
MissionOperational Commercial Communications
Bus & MotorELITEBUS, Unknown motor
Mass860 kg wet, 700 kg dry
Launch date (UTC)
2017-01-14 (8 years ago)
Launch vehicle
FALCON 9
Launch site
Air Force Western Test Range (AFWTR)
Object type
Payload
Rocket body
Debris
Shape & HBRTrap Box + 2 Pan, 9.4 m
Radar Cross Section14.423 m², Large (>1 m²)

Expand to show TLE details & history

TLE from 16 hours ago
0 IRIDIUM 114
1 41923U 17003G   24339.46317523  .00000288  00000-0  95916-4 0  9994
2 41923  86.3950 322.3399 0002304  81.2951 278.8506 14.34217401413021
Epoch: 2024-12-04T11:06Z
Definitive object data (Epoch: 2024-12-04T11:06:58.339Z)
Latitude-0.00002°
Longitude81.83885°
Altitude780.466 km
Speed7.464 km/s
True Right ascension21h 29m 21s
True Declination0° 00' 00"
Sunlit
Object was in daylight at TLE epoch
Visualization TLE readout
Latitude-49.52601°
Longitude-94.23059°
Altitude798.395 km
Speed7.452 km/s
Apparent Right ascension11h 31m 25s
Apparent Declination-47° 51' 12"
Sunlit
Object is in daylight
Visualization observer readout
Local Sidereal Time01:12:21
Azimuth122.061° SE
Elevation-70.272°
Doppler factor1
Orbital elements
Apogee altitude776.281 km
Perigee altitude772.985 km
Semi-major axis7,152.77 km
Eccentricity0.0002304
Inclination86.395°
RAAN322.3399°
Arg. of periapsis81.2951°
True anomaly278.82451°
Mean anomaly278.8506°
Eccentric anomaly278.83756°
Mean motion3.58783 °/min
BSTAR0.000095916
Orbital period100.34 mins
Loading maneuver chart data...
Loading historical data...
Loading historical data...
Loading historical data...
Loading historical data...
Loading historical data...
Loading historical data...
Loading historical data...

IRIDIUM 114 Visibility forecast

Observer location: undefined°, undefined

Span
Click to sort rows by Start time (UTC) header in descending order
Start Az.
Max El. time (UTC)
Max El. Az.
Max El.
End time (UTC)
End Az.
9 mins2024-12-05 11:08:08.959Z0.001° NNE2024-12-05 11:12:08.959Z31.347° NE44.102°2024-12-05 11:17:08.959Z175.348° S
5 mins2024-12-05 22:26:08.959Z108.643° ESE2024-12-05 22:28:08.959Z80.526° E18.152°2024-12-05 22:31:08.959Z41.56° NE
8 mins2024-12-06 00:05:08.959Z211.578° SW2024-12-06 00:08:08.959Z264.774° W35.356°2024-12-06 00:13:08.959Z348.723° N
|